Year,Month,Day,Hour,Minute,Value (Times are PST for temperature in C)
2024,04,19,00,00,6.80
2024,04,19,00,01,6.70
2024,04,19,00,02,6.70
2024,04,19,00,03,6.70
2024,04,19,00,04,6.70
2024,04,19,00,05,6.60
2024,04,19,00,06,6.60
2024,04,19,00,07,6.60
2024,04,19,00,08,6.60
2024,04,19,00,09,6.60
2024,04,19,00,10,6.50
2024,04,19,00,11,6.40
2024,04,19,00,12,6.40
2024,04,19,00,13,6.40
2024,04,19,00,14,6.40
2024,04,19,00,15,6.40
2024,04,19,00,16,6.30
2024,04,19,00,17,6.30
2024,04,19,00,18,6.30
2024,04,19,00,19,6.20
2024,04,19,00,20,6.20
2024,04,19,00,21,6.20
2024,04,19,00,22,6.20
2024,04,19,00,23,6.20
2024,04,19,00,24,6.20
2024,04,19,00,25,6.10
2024,04,19,00,26,6.10
2024,04,19,00,27,6.10
2024,04,19,00,28,6.10
2024,04,19,00,29,6.10
2024,04,19,00,30,6.00
2024,04,19,00,31,6.00
2024,04,19,00,32,6.00
2024,04,19,00,33,6.00
2024,04,19,00,34,6.00
2024,04,19,00,35,6.00
2024,04,19,00,36,5.90
2024,04,19,00,37,5.90
2024,04,19,00,38,5.90
2024,04,19,00,39,5.90
2024,04,19,00,40,5.90
2024,04,19,00,41,5.90
2024,04,19,00,42,5.90
2024,04,19,00,43,5.90
2024,04,19,00,44,5.90
2024,04,19,00,45,5.80
2024,04,19,00,46,5.80
2024,04,19,00,47,5.80
2024,04,19,00,48,5.80
2024,04,19,00,49,5.80
2024,04,19,00,50,5.70
2024,04,19,00,51,5.70
2024,04,19,00,52,5.70
2024,04,19,00,53,5.70
2024,04,19,00,54,5.70
2024,04,19,00,55,5.70
2024,04,19,00,56,5.70
2024,04,19,00,57,5.70
2024,04,19,00,58,5.70
2024,04,19,00,59,5.70
2024,04,19,01,00,5.80
2024,04,19,01,01,5.80
2024,04,19,01,02,5.80
2024,04,19,01,03,5.90
2024,04,19,01,04,5.90
2024,04,19,01,05,5.90
2024,04,19,01,06,5.90
2024,04,19,01,07,6.00
2024,04,19,01,08,5.90
2024,04,19,01,09,5.90
2024,04,19,01,10,5.90
2024,04,19,01,11,5.90
2024,04,19,01,12,5.90
2024,04,19,01,13,5.90
2024,04,19,01,14,5.80
2024,04,19,01,15,5.80
2024,04,19,01,16,5.80
2024,04,19,01,17,5.80
2024,04,19,01,18,5.70
2024,04,19,01,19,5.70
2024,04,19,01,20,5.70
2024,04,19,01,21,5.70
2024,04,19,01,22,5.70
2024,04,19,01,23,5.70
2024,04,19,01,24,5.70
2024,04,19,01,25,5.60
2024,04,19,01,26,5.60
2024,04,19,01,27,5.60
2024,04,19,01,28,5.50
2024,04,19,01,29,5.50
2024,04,19,01,30,5.50
2024,04,19,01,31,5.50
2024,04,19,01,32,5.40
2024,04,19,01,33,5.40
2024,04,19,01,34,5.40
2024,04,19,01,35,5.40
2024,04,19,01,36,5.30
2024,04,19,01,37,5.30
2024,04,19,01,38,5.30
2024,04,19,01,39,5.30
2024,04,19,01,40,5.30
2024,04,19,01,41,5.30
2024,04,19,01,42,5.30
2024,04,19,01,43,5.30
2024,04,19,01,44,5.20
2024,04,19,01,45,5.20
2024,04,19,01,46,5.20
2024,04,19,01,47,5.10
2024,04,19,01,48,5.10
2024,04,19,01,49,5.10
2024,04,19,01,50,5.10
2024,04,19,01,51,5.10
2024,04,19,01,52,5.10
2024,04,19,01,53,5.00
2024,04,19,01,54,4.90
2024,04,19,01,55,4.90
2024,04,19,01,56,4.90
2024,04,19,01,57,4.90
2024,04,19,01,58,4.90
2024,04,19,01,59,4.90
2024,04,19,02,00,4.90
2024,04,19,02,01,4.80
2024,04,19,02,02,4.80
2024,04,19,02,03,4.80
2024,04,19,02,04,4.80
2024,04,19,02,05,4.80
2024,04,19,02,06,4.70
2024,04,19,02,07,4.70
2024,04,19,02,08,4.70
2024,04,19,02,09,4.70
2024,04,19,02,10,4.70
2024,04,19,02,11,4.70
2024,04,19,02,12,4.70
2024,04,19,02,13,4.70
2024,04,19,02,14,4.70
2024,04,19,02,15,4.80
2024,04,19,02,16,4.80
2024,04,19,02,17,4.80
2024,04,19,02,18,4.80
2024,04,19,02,19,4.90
2024,04,19,02,20,4.90
2024,04,19,02,21,4.90
2024,04,19,02,22,5.10
2024,04,19,02,23,5.10
2024,04,19,02,24,5.10
2024,04,19,02,25,5.10
2024,04,19,02,26,5.20
2024,04,19,02,27,5.20
2024,04,19,02,28,5.20
2024,04,19,02,29,5.20
2024,04,19,02,30,5.30
2024,04,19,02,31,5.30
2024,04,19,02,32,5.30
2024,04,19,02,33,5.30
2024,04,19,02,34,5.30
2024,04,19,02,35,5.30
2024,04,19,02,36,5.40
2024,04,19,02,37,5.40
2024,04,19,02,38,5.40
2024,04,19,02,39,5.40
2024,04,19,02,40,5.40
2024,04,19,02,41,5.50
2024,04,19,02,42,5.50
2024,04,19,02,43,5.50
2024,04,19,02,44,5.50
2024,04,19,02,45,5.50
2024,04,19,02,46,5.50
2024,04,19,02,47,5.50
2024,04,19,02,48,5.50
2024,04,19,02,49,5.50
2024,04,19,02,50,5.50
2024,04,19,02,51,5.50
2024,04,19,02,52,5.50
2024,04,19,02,53,5.50
2024,04,19,02,54,5.50
2024,04,19,02,55,5.50
2024,04,19,02,56,5.60
2024,04,19,02,57,5.60
2024,04,19,02,58,5.60
2024,04,19,02,59,5.60
2024,04,19,03,00,5.70
2024,04,19,03,01,5.70
2024,04,19,03,02,5.70
2024,04,19,03,03,5.70
2024,04,19,03,04,5.80
2024,04,19,03,05,5.90
2024,04,19,03,06,5.90
2024,04,19,03,07,6.00
2024,04,19,03,08,6.00
2024,04,19,03,09,6.10
2024,04,19,03,10,6.10
2024,04,19,03,11,6.10
2024,04,19,03,12,6.10
2024,04,19,03,13,6.10
2024,04,19,03,14,6.10
2024,04,19,03,15,6.10
2024,04,19,03,16,6.10
2024,04,19,03,17,6.10
2024,04,19,03,18,6.10
2024,04,19,03,19,6.10
2024,04,19,03,20,6.10
2024,04,19,03,21,6.10
2024,04,19,03,22,6.00
2024,04,19,03,23,6.00
2024,04,19,03,24,6.00
2024,04,19,03,25,6.00
2024,04,19,03,26,6.00
2024,04,19,03,27,6.00
2024,04,19,03,28,6.00
2024,04,19,03,29,6.00
2024,04,19,03,30,6.00
2024,04,19,03,31,6.00
2024,04,19,03,32,6.00
2024,04,19,03,33,6.00
2024,04,19,03,34,6.00
2024,04,19,03,35,6.00
2024,04,19,03,36,6.00
2024,04,19,03,37,6.00
2024,04,19,03,38,6.00
2024,04,19,03,39,6.10
2024,04,19,03,40,6.10
2024,04,19,03,41,6.10
2024,04,19,03,42,6.20
2024,04,19,03,43,6.20
2024,04,19,03,44,6.20
2024,04,19,03,45,6.20
2024,04,19,03,46,6.20
2024,04,19,03,47,6.20
2024,04,19,03,48,6.20
2024,04,19,03,49,6.20
2024,04,19,03,50,6.20
2024,04,19,03,51,6.20
2024,04,19,03,52,6.20
2024,04,19,03,53,6.20
2024,04,19,03,54,6.10
2024,04,19,03,55,6.10
2024,04,19,03,56,6.10
2024,04,19,03,57,6.10
2024,04,19,03,58,6.10
2024,04,19,03,59,6.10
2024,04,19,04,00,6.10
2024,04,19,04,01,6.10
2024,04,19,04,02,6.00
2024,04,19,04,03,6.00
2024,04,19,04,04,6.00
2024,04,19,04,05,6.00
2024,04,19,04,06,6.00
2024,04,19,04,07,6.00
2024,04,19,04,08,6.00
2024,04,19,04,09,6.00
2024,04,19,04,10,6.00
2024,04,19,04,11,6.00
2024,04,19,04,12,5.90
2024,04,19,04,13,5.90
2024,04,19,04,14,5.90
2024,04,19,04,15,5.90
2024,04,19,04,16,5.90
2024,04,19,04,17,5.90
2024,04,19,04,18,5.90
2024,04,19,04,19,5.90
2024,04,19,04,20,6.00
2024,04,19,04,21,6.00
2024,04,19,04,22,6.00
2024,04,19,04,23,6.10
2024,04,19,04,24,6.10
2024,04,19,04,25,6.10
2024,04,19,04,26,6.10
2024,04,19,04,27,6.00
2024,04,19,04,28,6.00
2024,04,19,04,29,6.00
2024,04,19,04,30,5.90
2024,04,19,04,31,5.90
2024,04,19,04,32,5.80
2024,04,19,04,33,5.80
2024,04,19,04,34,5.80
2024,04,19,04,35,5.70
2024,04,19,04,36,5.70
2024,04,19,04,37,5.70
2024,04,19,04,38,5.70
2024,04,19,04,39,5.60
2024,04,19,04,40,5.60
2024,04,19,04,41,5.50
2024,04,19,04,42,5.50
2024,04,19,04,43,5.50
2024,04,19,04,44,5.40
2024,04,19,04,45,5.40
2024,04,19,04,46,5.40
2024,04,19,04,47,5.30
2024,04,19,04,48,5.30
2024,04,19,04,49,5.30
2024,04,19,04,50,5.30
2024,04,19,04,51,5.30
2024,04,19,04,52,5.30
2024,04,19,04,53,5.30
2024,04,19,04,54,5.40
2024,04,19,04,55,5.40
2024,04,19,04,56,5.50
2024,04,19,04,57,5.50
2024,04,19,04,58,5.60
2024,04,19,04,59,5.60
2024,04,19,05,00,5.70
2024,04,19,05,01,5.70
2024,04,19,05,02,5.70
2024,04,19,05,03,5.70
2024,04,19,05,04,5.80
2024,04,19,05,05,5.80
2024,04,19,05,06,5.90
2024,04,19,05,07,5.90
2024,04,19,05,08,6.00
2024,04,19,05,09,6.00
2024,04,19,05,10,6.00
2024,04,19,05,11,6.00
2024,04,19,05,12,6.00
2024,04,19,05,13,6.00
2024,04,19,05,14,6.00
2024,04,19,05,15,6.00
2024,04,19,05,16,6.00
2024,04,19,05,17,6.00
2024,04,19,05,18,6.00
2024,04,19,05,19,6.00
2024,04,19,05,20,6.00
2024,04,19,05,21,6.00
2024,04,19,05,22,5.90
2024,04,19,05,23,5.90
2024,04,19,05,24,5.90
2024,04,19,05,25,5.90
2024,04,19,05,26,5.90
2024,04,19,05,27,5.80
2024,04,19,05,28,5.80
2024,04,19,05,29,5.80
2024,04,19,05,30,5.90
2024,04,19,05,31,5.90
2024,04,19,05,32,6.00
2024,04,19,05,33,6.00
2024,04,19,05,34,6.00
2024,04,19,05,35,6.10
2024,04,19,05,36,6.10
2024,04,19,05,37,6.10
2024,04,19,05,38,6.20
2024,04,19,05,39,6.20
2024,04,19,05,40,6.20
2024,04,19,05,41,6.20
2024,04,19,05,42,6.30
2024,04,19,05,43,6.30
2024,04,19,05,44,6.30
2024,04,19,05,45,6.40
2024,04,19,05,46,6.40
2024,04,19,05,47,6.30
2024,04,19,05,48,6.30
2024,04,19,05,49,6.30
2024,04,19,05,50,6.40
2024,04,19,05,51,6.40
2024,04,19,05,52,6.30
2024,04,19,05,53,6.30
2024,04,19,05,54,6.30
2024,04,19,05,55,6.30
2024,04,19,05,56,6.30
2024,04,19,05,57,6.30
2024,04,19,05,58,6.30
2024,04,19,05,59,6.40
2024,04,19,06,00,6.40
2024,04,19,06,01,6.40
2024,04,19,06,02,6.40
2024,04,19,06,03,6.30
2024,04,19,06,04,6.30
2024,04,19,06,05,6.30
2024,04,19,06,06,6.20
2024,04,19,06,07,6.20
2024,04,19,06,08,6.20
2024,04,19,06,09,6.20
2024,04,19,06,10,6.20
2024,04,19,06,11,6.10
2024,04,19,06,12,6.10
2024,04,19,06,13,6.00
2024,04,19,06,14,6.00
2024,04,19,06,15,5.90
2024,04,19,06,16,5.90
2024,04,19,06,17,5.90
2024,04,19,06,18,5.90
2024,04,19,06,19,5.90
2024,04,19,06,20,5.80
2024,04,19,06,21,5.80
2024,04,19,06,22,5.80
2024,04,19,06,23,5.80
2024,04,19,06,24,5.80
2024,04,19,06,25,5.80
2024,04,19,06,26,5.80
2024,04,19,06,27,5.80
2024,04,19,06,28,5.80
2024,04,19,06,29,5.80
2024,04,19,06,30,5.90
2024,04,19,06,31,5.90
2024,04,19,06,32,5.90
2024,04,19,06,33,5.90
2024,04,19,06,34,6.00
2024,04,19,06,35,6.00
2024,04,19,06,36,6.00
2024,04,19,06,37,6.10
2024,04,19,06,38,6.10
2024,04,19,06,39,6.20
2024,04,19,06,40,6.20
2024,04,19,06,41,6.20
2024,04,19,06,42,6.20
2024,04,19,06,43,6.20
2024,04,19,06,44,6.20
2024,04,19,06,45,6.20
2024,04,19,06,46,6.20
2024,04,19,06,47,6.20
2024,04,19,06,48,6.20
2024,04,19,06,49,6.20
2024,04,19,06,50,6.30
2024,04,19,06,51,6.30
2024,04,19,06,52,6.40
2024,04,19,06,53,6.40
2024,04,19,06,54,6.50
2024,04,19,06,55,6.60
2024,04,19,06,56,6.70
2024,04,19,06,57,6.70
2024,04,19,06,58,6.80
2024,04,19,06,59,6.80
2024,04,19,07,00,6.90
2024,04,19,07,01,7.00
2024,04,19,07,02,7.00
2024,04,19,07,03,7.00
2024,04,19,07,04,7.00
2024,04,19,07,05,7.10
2024,04,19,07,06,7.10
2024,04,19,07,07,7.10
2024,04,19,07,08,7.20
2024,04,19,07,09,7.20
2024,04,19,07,10,7.30
2024,04,19,07,11,7.30
2024,04,19,07,12,7.30
2024,04,19,07,13,7.30
2024,04,19,07,14,7.40
2024,04,19,07,15,7.50
2024,04,19,07,16,7.60
2024,04,19,07,17,7.70
2024,04,19,07,18,7.70
2024,04,19,07,19,7.80
2024,04,19,07,20,7.90
2024,04,19,07,21,7.90
2024,04,19,07,22,8.00
2024,04,19,07,23,8.10
2024,04,19,07,24,8.20
2024,04,19,07,25,8.30
2024,04,19,07,26,8.40
2024,04,19,07,27,8.50
2024,04,19,07,28,8.60
2024,04,19,07,29,8.70
2024,04,19,07,30,8.70
2024,04,19,07,31,8.90
2024,04,19,07,32,8.90
2024,04,19,07,33,9.00
2024,04,19,07,34,9.00
2024,04,19,07,35,9.10
2024,04,19,07,36,9.20
2024,04,19,07,37,9.20
2024,04,19,07,38,9.20
2024,04,19,07,39,9.30
2024,04,19,07,40,9.40
2024,04,19,07,41,9.40
2024,04,19,07,42,9.50
2024,04,19,07,43,9.60
2024,04,19,07,44,9.60
2024,04,19,07,45,9.70
2024,04,19,07,46,9.70
2024,04,19,07,47,9.70
2024,04,19,07,48,9.80
2024,04,19,07,49,9.80
2024,04,19,07,50,9.80
2024,04,19,07,51,9.90
2024,04,19,07,52,9.90
2024,04,19,07,53,9.90
2024,04,19,07,54,9.90
2024,04,19,07,55,10.00
2024,04,19,07,56,10.10
2024,04,19,07,57,10.10
2024,04,19,07,58,10.10
2024,04,19,07,59,10.20
2024,04,19,08,00,10.20
2024,04,19,08,01,10.30
2024,04,19,08,02,10.30
2024,04,19,08,03,10.40
2024,04,19,08,04,10.40
2024,04,19,08,05,10.50
2024,04,19,08,06,10.50
2024,04,19,08,07,10.60
2024,04,19,08,08,10.60
2024,04,19,08,09,10.60
2024,04,19,08,10,10.60
2024,04,19,08,11,10.70
2024,04,19,08,12,10.70
2024,04,19,08,13,10.80
2024,04,19,08,14,10.80
2024,04,19,08,15,10.80
2024,04,19,08,16,10.90
2024,04,19,08,17,10.90
2024,04,19,08,18,10.90
2024,04,19,08,19,10.90
2024,04,19,08,20,11.00
2024,04,19,08,21,11.10
2024,04,19,08,22,11.10
2024,04,19,08,23,11.20
2024,04,19,08,24,11.20
2024,04,19,08,25,11.30
2024,04,19,08,26,11.30
2024,04,19,08,27,11.30
2024,04,19,08,28,11.30
2024,04,19,08,29,11.30
2024,04,19,08,30,11.30
2024,04,19,08,31,11.40
2024,04,19,08,32,11.40
2024,04,19,08,33,11.40
2024,04,19,08,34,11.40
2024,04,19,08,35,11.50
2024,04,19,08,36,11.60
2024,04,19,08,37,11.60
2024,04,19,08,38,11.60
2024,04,19,08,39,11.60
2024,04,19,08,40,11.70
2024,04,19,08,41,11.70
2024,04,19,08,42,11.80
2024,04,19,08,43,11.80
2024,04,19,08,44,11.80
2024,04,19,08,45,11.80
2024,04,19,08,46,11.90
2024,04,19,08,47,11.90
2024,04,19,08,48,12.00
2024,04,19,08,49,12.10
2024,04,19,08,50,12.20
2024,04,19,08,51,12.20
2024,04,19,08,52,12.30
2024,04,19,08,53,12.30
2024,04,19,08,54,12.30
2024,04,19,08,55,12.30
2024,04,19,08,56,12.30
2024,04,19,08,57,12.30
2024,04,19,08,58,12.40
2024,04,19,08,59,12.40
2024,04,19,09,00,12.50
2024,04,19,09,01,12.50
2024,04,19,09,02,12.50
2024,04,19,09,03,12.50
2024,04,19,09,04,12.50
2024,04,19,09,05,12.50
2024,04,19,09,06,12.50
2024,04,19,09,07,12.50
2024,04,19,09,08,12.50
2024,04,19,09,09,12.50
2024,04,19,09,10,12.50
2024,04,19,09,11,12.60
2024,04,19,09,12,12.70
2024,04,19,09,13,12.70
2024,04,19,09,14,12.80
2024,04,19,09,15,12.90
2024,04,19,09,16,12.90
2024,04,19,09,17,12.80
2024,04,19,09,18,12.80
2024,04,19,09,19,12.80
2024,04,19,09,20,12.80
2024,04,19,09,21,12.90
2024,04,19,09,22,12.90
2024,04,19,09,23,12.90
2024,04,19,09,24,12.90
2024,04,19,09,25,12.90
2024,04,19,09,26,12.80
2024,04,19,09,27,12.80
2024,04,19,09,28,12.80
2024,04,19,09,29,12.80
2024,04,19,09,30,12.80
2024,04,19,09,31,12.80
2024,04,19,09,32,12.80
2024,04,19,09,33,12.90
2024,04,19,09,34,12.90
2024,04,19,09,35,13.00
2024,04,19,09,36,13.10
2024,04,19,09,37,13.10
2024,04,19,09,38,13.10
2024,04,19,09,39,13.20
2024,04,19,09,40,13.30
2024,04,19,09,41,13.40
2024,04,19,09,42,13.50
2024,04,19,09,43,13.60
2024,04,19,09,44,13.70
2024,04,19,09,45,13.70
2024,04,19,09,46,13.70
2024,04,19,09,47,13.70
2024,04,19,09,48,13.70
2024,04,19,09,49,13.70
2024,04,19,09,50,13.70
2024,04,19,09,51,13.70
2024,04,19,09,52,13.70
2024,04,19,09,53,13.70
2024,04,19,09,54,13.70
2024,04,19,09,55,13.70
2024,04,19,09,56,13.70
2024,04,19,09,57,13.70
2024,04,19,09,58,13.70
2024,04,19,09,59,13.80
2024,04,19,10,00,13.90
2024,04,19,10,01,14.00
2024,04,19,10,02,14.00
2024,04,19,10,03,14.00
2024,04,19,10,04,14.00
2024,04,19,10,05,14.00
2024,04,19,10,06,14.00
2024,04,19,10,07,14.10
2024,04,19,10,08,14.10
2024,04,19,10,09,14.20
2024,04,19,10,10,14.20
2024,04,19,10,11,14.30
2024,04,19,10,12,14.40
2024,04,19,10,13,14.40
2024,04,19,10,14,14.50
2024,04,19,10,15,14.50
2024,04,19,10,16,14.40
2024,04,19,10,17,14.40
2024,04,19,10,18,14.30
2024,04,19,10,19,14.20
2024,04,19,10,20,14.20
2024,04,19,10,21,14.20
2024,04,19,10,22,14.20
2024,04,19,10,23,14.30
2024,04,19,10,24,14.40
2024,04,19,10,25,14.50
2024,04,19,10,26,14.60
2024,04,19,10,27,14.70
2024,04,19,10,28,14.80
2024,04,19,10,29,14.90
2024,04,19,10,30,15.00
2024,04,19,10,31,15.10
2024,04,19,10,32,15.10
2024,04,19,10,33,15.20
2024,04,19,10,34,15.10
2024,04,19,10,35,15.10
2024,04,19,10,36,15.10
2024,04,19,10,37,15.10
2024,04,19,10,38,15.00
2024,04,19,10,39,15.10
2024,04,19,10,40,15.10
2024,04,19,10,41,15.20
2024,04,19,10,42,15.30
2024,04,19,10,43,15.30
2024,04,19,10,44,15.50
2024,04,19,10,45,15.50
2024,04,19,10,46,15.50
2024,04,19,10,47,15.50
2024,04,19,10,48,15.40
2024,04,19,10,49,15.40
2024,04,19,10,50,15.30
2024,04,19,10,51,15.20
2024,04,19,10,52,15.20
2024,04,19,10,53,15.20
2024,04,19,10,54,15.20
2024,04,19,10,55,15.30
2024,04,19,10,56,15.30
2024,04,19,10,57,15.30
2024,04,19,10,58,15.20
2024,04,19,10,59,15.20
2024,04,19,11,00,15.20
2024,04,19,11,01,15.30
2024,04,19,11,02,15.30
2024,04,19,11,03,15.30
2024,04,19,11,04,15.20
2024,04,19,11,05,15.20
2024,04,19,11,06,15.20
2024,04,19,11,07,15.30
2024,04,19,11,08,15.30
2024,04,19,11,09,15.30
2024,04,19,11,10,15.30
2024,04,19,11,11,15.30
2024,04,19,11,12,15.30
2024,04,19,11,13,15.30
2024,04,19,11,14,15.30
2024,04,19,11,15,15.30
2024,04,19,11,16,15.40
2024,04,19,11,17,15.40
2024,04,19,11,18,15.30
2024,04,19,11,19,15.30
2024,04,19,11,20,15.50
2024,04,19,11,21,15.50
2024,04,19,11,22,15.60
2024,04,19,11,23,15.70
2024,04,19,11,24,15.70
2024,04,19,11,25,15.80
2024,04,19,11,26,15.90
2024,04,19,11,27,15.90
2024,04,19,11,28,15.90
2024,04,19,11,29,15.90
2024,04,19,11,30,15.90
2024,04,19,11,31,15.90
2024,04,19,11,32,15.80
2024,04,19,11,33,15.80
2024,04,19,11,34,15.80
2024,04,19,11,35,15.80
2024,04,19,11,36,15.80
2024,04,19,11,37,15.90
2024,04,19,11,38,16.00
2024,04,19,11,39,15.90
2024,04,19,11,40,15.90
2024,04,19,11,41,15.80
2024,04,19,11,42,15.80
2024,04,19,11,43,15.80
2024,04,19,11,44,15.80
2024,04,19,11,45,15.80
2024,04,19,11,46,15.80
2024,04,19,11,47,15.80
2024,04,19,11,48,15.90
2024,04,19,11,49,15.90
2024,04,19,11,50,16.00
2024,04,19,11,51,16.10
2024,04,19,11,52,16.20
2024,04,19,11,53,16.30
2024,04,19,11,54,16.40
2024,04,19,11,55,16.50
2024,04,19,11,56,16.70
2024,04,19,11,57,16.80
2024,04,19,11,58,16.80
2024,04,19,11,59,16.80
2024,04,19,12,00,16.70
2024,04,19,12,01,16.70
2024,04,19,12,02,16.70
2024,04,19,12,03,16.70
2024,04,19,12,04,16.50
2024,04,19,12,05,16.40
2024,04,19,12,06,16.40
2024,04,19,12,07,16.40
2024,04,19,12,08,16.40
2024,04,19,12,09,16.40
2024,04,19,12,10,16.40
2024,04,19,12,11,16.40
2024,04,19,12,12,16.30
2024,04,19,12,13,16.30
2024,04,19,12,14,16.20
2024,04,19,12,15,16.10
2024,04,19,12,16,16.10
2024,04,19,12,17,16.10
2024,04,19,12,18,16.20
2024,04,19,12,19,16.20
2024,04,19,12,20,16.20
2024,04,19,12,21,16.40
2024,04,19,12,22,16.50
2024,04,19,12,23,16.60
2024,04,19,12,24,16.70
2024,04,19,12,25,16.60
2024,04,19,12,26,16.60
2024,04,19,12,27,16.60
2024,04,19,12,28,16.70
2024,04,19,12,29,16.70
2024,04,19,12,30,16.80
2024,04,19,12,31,16.90
2024,04,19,12,32,16.90
2024,04,19,12,33,16.80
2024,04,19,12,34,16.80
2024,04,19,12,35,16.90
2024,04,19,12,36,16.90
2024,04,19,12,37,16.90
2024,04,19,12,38,17.00
2024,04,19,12,39,17.10
2024,04,19,12,40,17.20
2024,04,19,12,41,17.30
2024,04,19,12,42,17.40
2024,04,19,12,43,17.50
2024,04,19,12,44,17.60
2024,04,19,12,45,17.60
2024,04,19,12,46,17.60
2024,04,19,12,47,17.50
2024,04,19,12,48,17.40
2024,04,19,12,49,17.40
2024,04,19,12,50,17.40
2024,04,19,12,51,17.40
2024,04,19,12,52,17.50
2024,04,19,12,53,17.60
2024,04,19,12,54,17.70
2024,04,19,12,55,17.70
2024,04,19,12,56,17.80
2024,04,19,12,57,17.70
2024,04,19,12,58,17.70
2024,04,19,12,59,17.50
2024,04,19,13,00,17.40
2024,04,19,13,01,17.30
2024,04,19,13,02,17.10
2024,04,19,13,03,17.00
2024,04,19,13,04,16.90
2024,04,19,13,05,16.80
2024,04,19,13,06,16.80
2024,04,19,13,07,16.70
2024,04,19,13,08,16.70
2024,04,19,13,09,16.70
2024,04,19,13,10,16.70
2024,04,19,13,11,16.80
2024,04,19,13,12,16.80
2024,04,19,13,13,16.90
2024,04,19,13,14,17.00
2024,04,19,13,15,17.10
2024,04,19,13,16,17.20
2024,04,19,13,17,17.20
2024,04,19,13,18,17.10
2024,04,19,13,19,17.00
2024,04,19,13,20,16.90
2024,04,19,13,21,16.90
2024,04,19,13,22,16.90
2024,04,19,13,23,16.90
2024,04,19,13,24,17.00
2024,04,19,13,25,17.10
2024,04,19,13,26,17.20
2024,04,19,13,27,17.10
2024,04,19,13,28,17.10
2024,04,19,13,29,17.10
2024,04,19,13,30,17.10
2024,04,19,13,31,17.10
2024,04,19,13,32,17.20
2024,04,19,13,33,17.40
2024,04,19,13,34,17.50
2024,04,19,13,35,17.50
2024,04,19,13,36,17.50
2024,04,19,13,37,17.40
2024,04,19,13,38,17.40
2024,04,19,13,39,17.40
2024,04,19,13,40,17.40
2024,04,19,13,41,17.40
2024,04,19,13,42,17.40
2024,04,19,13,43,17.50
2024,04,19,13,44,17.50
2024,04,19,13,45,17.50
2024,04,19,13,46,17.50
2024,04,19,13,47,17.50
2024,04,19,13,48,17.50
2024,04,19,13,49,17.30
2024,04,19,13,50,17.30
2024,04,19,13,51,17.30
2024,04,19,13,52,17.30
2024,04,19,13,53,17.30
2024,04,19,13,54,17.30
2024,04,19,13,55,17.20
2024,04,19,13,56,17.20
2024,04,19,13,57,17.20
2024,04,19,13,58,17.20
2024,04,19,13,59,17.20
2024,04,19,14,00,17.10
2024,04,19,14,01,17.10
2024,04,19,14,02,17.20
2024,04,19,14,03,17.30
2024,04,19,14,04,17.30
2024,04,19,14,05,17.30
2024,04,19,14,06,17.40
2024,04,19,14,07,17.30
2024,04,19,14,08,17.30
2024,04,19,14,09,17.30
2024,04,19,14,10,17.30
2024,04,19,14,11,17.30
2024,04,19,14,12,17.30
2024,04,19,14,13,17.40
2024,04,19,14,14,17.40
2024,04,19,14,15,17.50
2024,04,19,14,16,17.50
2024,04,19,14,17,17.50
2024,04,19,14,18,17.50
2024,04,19,14,19,17.60
2024,04,19,14,20,17.50
2024,04,19,14,21,17.40
2024,04,19,14,22,17.40
2024,04,19,14,23,17.40
2024,04,19,14,24,17.50
2024,04,19,14,25,17.50
2024,04,19,14,26,17.50
2024,04,19,14,27,17.50
2024,04,19,14,28,17.50
2024,04,19,14,29,17.60
2024,04,19,14,30,17.70
2024,04,19,14,31,17.70
2024,04,19,14,32,17.70
2024,04,19,14,33,17.70
2024,04,19,14,34,17.80
2024,04,19,14,35,17.70
2024,04,19,14,36,17.70
2024,04,19,14,37,17.50
2024,04,19,14,38,17.40
2024,04,19,14,39,17.30
2024,04,19,14,40,17.30
2024,04,19,14,41,17.30
2024,04,19,14,42,17.40
2024,04,19,14,43,17.50
2024,04,19,14,44,17.60
2024,04,19,14,45,17.60
2024,04,19,14,46,17.70
2024,04,19,14,47,17.70
2024,04,19,14,48,17.70
2024,04,19,14,49,17.70
2024,04,19,14,50,17.80
2024,04,19,14,51,17.80
2024,04,19,14,52,17.80
2024,04,19,14,53,17.90
2024,04,19,14,54,17.90
2024,04,19,14,55,17.80
2024,04,19,14,56,17.70
2024,04,19,14,57,17.60
2024,04,19,14,58,17.50
2024,04,19,14,59,17.50
2024,04,19,15,00,17.40
2024,04,19,15,01,17.30
2024,04,19,15,02,17.40
2024,04,19,15,03,17.50
2024,04,19,15,04,17.50
2024,04,19,15,05,17.50
2024,04,19,15,06,17.40
2024,04,19,15,07,17.40
2024,04,19,15,08,17.40
2024,04,19,15,09,17.40
2024,04,19,15,10,17.30
2024,04,19,15,11,17.30
2024,04,19,15,12,17.30
2024,04,19,15,13,17.30
2024,04,19,15,14,17.30
2024,04,19,15,15,17.30
2024,04,19,15,16,17.30
2024,04,19,15,17,17.30
2024,04,19,15,18,17.40
2024,04,19,15,19,17.50
2024,04,19,15,20,17.70
2024,04,19,15,21,17.70
2024,04,19,15,22,17.70
2024,04,19,15,23,17.60
2024,04,19,15,24,17.60
2024,04,19,15,25,17.60
2024,04,19,15,26,17.70
2024,04,19,15,27,17.70
2024,04,19,15,28,17.70
2024,04,19,15,29,17.70
2024,04,19,15,30,17.80
2024,04,19,15,31,17.70
2024,04,19,15,32,17.50
2024,04,19,15,33,17.50
2024,04,19,15,34,17.40
2024,04,19,15,35,17.40
2024,04,19,15,36,17.40
2024,04,19,15,37,17.50
2024,04,19,15,38,17.60
2024,04,19,15,39,17.70
2024,04,19,15,40,17.80
2024,04,19,15,41,17.90
2024,04,19,15,42,17.90
2024,04,19,15,43,18.00
2024,04,19,15,44,18.10
2024,04,19,15,45,18.20
2024,04,19,15,46,18.20
2024,04,19,15,47,18.30
2024,04,19,15,48,18.20
2024,04,19,15,49,18.20
2024,04,19,15,50,18.20
2024,04,19,15,51,18.20
2024,04,19,15,52,18.20
2024,04,19,15,53,18.20
2024,04,19,15,54,18.10
2024,04,19,15,55,18.10
2024,04,19,15,56,18.00
2024,04,19,15,57,17.90
2024,04,19,15,58,18.00
2024,04,19,15,59,17.90
2024,04,19,16,00,17.90
2024,04,19,16,01,17.90
2024,04,19,16,02,17.90
2024,04,19,16,03,17.90
2024,04,19,16,04,17.80
2024,04,19,16,05,17.90
2024,04,19,16,06,17.90
2024,04,19,16,07,18.00
2024,04,19,16,08,18.20
2024,04,19,16,09,18.20
2024,04,19,16,10,18.30
2024,04,19,16,11,18.30
2024,04,19,16,12,18.20
2024,04,19,16,13,18.30
2024,04,19,16,14,18.30
2024,04,19,16,15,18.30
2024,04,19,16,16,18.30
2024,04,19,16,17,18.40
2024,04,19,16,18,18.50
2024,04,19,16,19,18.50
2024,04,19,16,20,18.50
2024,04,19,16,21,18.50
2024,04,19,16,22,18.40
2024,04,19,16,23,18.30
2024,04,19,16,24,18.30
2024,04,19,16,25,18.20
2024,04,19,16,26,18.20
2024,04,19,16,27,18.20
2024,04,19,16,28,18.20
2024,04,19,16,29,18.20
2024,04,19,16,30,18.20
2024,04,19,16,31,18.10
2024,04,19,16,32,18.00
2024,04,19,16,33,18.00
2024,04,19,16,34,17.90
2024,04,19,16,35,17.90
2024,04,19,16,36,17.90
2024,04,19,16,37,18.00
2024,04,19,16,38,18.10
2024,04,19,16,39,18.20
2024,04,19,16,40,18.30
2024,04,19,16,41,18.40
2024,04,19,16,42,18.40
2024,04,19,16,43,18.50
2024,04,19,16,44,18.50
2024,04,19,16,45,18.50
2024,04,19,16,46,18.40
2024,04,19,16,47,18.40
2024,04,19,16,48,18.40
2024,04,19,16,49,18.40
2024,04,19,16,50,18.20
2024,04,19,16,51,18.10
2024,04,19,16,52,18.10
2024,04,19,16,53,18.10
2024,04,19,16,54,18.10
2024,04,19,16,55,18.00
2024,04,19,16,56,18.00
2024,04,19,16,57,18.10
2024,04,19,16,58,18.10
2024,04,19,16,59,18.10
2024,04,19,17,00,18.00
2024,04,19,17,01,17.90
2024,04,19,17,02,18.00
2024,04,19,17,03,18.00
2024,04,19,17,04,18.00
2024,04,19,17,05,18.00
2024,04,19,17,06,18.10
2024,04,19,17,07,18.10
2024,04,19,17,08,18.10
2024,04,19,17,09,18.20
2024,04,19,17,10,18.20
2024,04,19,17,11,18.20
2024,04,19,17,12,18.20
2024,04,19,17,13,18.20
2024,04,19,17,14,18.00
2024,04,19,17,15,17.90
2024,04,19,17,16,17.90
2024,04,19,17,17,17.90
2024,04,19,17,18,17.90
2024,04,19,17,19,17.90
2024,04,19,17,20,17.90
2024,04,19,17,21,18.00
2024,04,19,17,22,17.90
2024,04,19,17,23,18.00
2024,04,19,17,24,17.90
2024,04,19,17,25,18.10
2024,04,19,17,26,18.00
2024,04,19,17,27,17.90
2024,04,19,17,28,17.80
2024,04,19,17,29,17.80
2024,04,19,17,30,17.80
2024,04,19,17,31,17.80
2024,04,19,17,32,17.80
2024,04,19,17,33,17.80
2024,04,19,17,34,17.80
2024,04,19,17,35,17.80
2024,04,19,17,36,17.90
2024,04,19,17,37,17.90
2024,04,19,17,38,17.90
2024,04,19,17,39,17.90
2024,04,19,17,40,17.90